• Em Portugal
  • Lista de países
  • Para 7 dias
  • Temperatura da água
  • Mapas de satélite
  • Mapa do tempo
  • Widgets de tempo
  • user-avatar
    Iniciar Sessão

    Previsão horária em Totonicapán

    Hoje, 13 Dezembro, Quarta-feira

    Tempo Temperatura Precipitação Vento Pressão Humidade
    00:00 +6°C° 0 mm 1 m/s 555 mmHg 83%
    01:00 +6°C° 0 mm 1 m/s 554 mmHg 83%
    02:00 +6°C° 0 mm 1 m/s 554 mmHg 83%
    03:00 +5°C° 0 mm 1 m/s 554 mmHg 83%
    04:00 +5°C° 0 mm 1 m/s 554 mmHg 83%
    05:00 +5°C° 0 mm 1 m/s 554 mmHg 82%
    06:00 +5°C° 0 mm 1 m/s 554 mmHg 82%
    07:00 +7°C° 0 mm 1 m/s 555 mmHg 75%
    08:00 +10°C° 0 mm 1 m/s 557 mmHg 68%
    09:00 +12°C° 0 mm 1 m/s 559 mmHg 62%
    10:00 +14°C° 0 mm 1 m/s 559 mmHg 58%
    11:00 +15°C° 0 mm 1 m/s 560 mmHg 54%
    12:00 +18°C° 0 mm 1 m/s 560 mmHg 50%
    13:00 +16°C° 0 mm 1 m/s 559 mmHg 55%
    14:00 +15°C° 0 mm 2 m/s 558 mmHg 59%
    15:00 +14°C° 0 mm 2 m/s 557 mmHg 64%
    16:00 +12°C° 0 mm 1 m/s 556 mmHg 73%
    17:00 +11°C° 0 mm 1 m/s 555 mmHg 81%
    18:00 +9°C° 0 mm 1 m/s 555 mmHg 90%
    19:00 +9°C° 0 mm 1 m/s 555 mmHg 89%
    20:00 +8°C° 0 mm 1 m/s 555 mmHg 88%
    21:00 +8°C° 0 mm 1 m/s 555 mmHg 87%
    22:00 +8°C° 0 mm 1 m/s 555 mmHg 87%
    23:00 +8°C° 0 mm 1 m/s 555 mmHg 86%

    Amanhã, 14 Dezembro, Quinta-feira

    Tempo Temperatura Precipitação Vento Pressão Humidade
    00:00 +7°C° 0 mm 1 m/s 555 mmHg 86%
    01:00 +7°C° 0 mm 1 m/s 554 mmHg 86%
    02:00 +7°C° 0 mm 1 m/s 554 mmHg 87%
    03:00 +7°C° 0 mm 1 m/s 554 mmHg 87%
    04:00 +7°C° 0 mm 1 m/s 553 mmHg 87%
    05:00 +7°C° 0 mm 1 m/s 553 mmHg 87%
    06:00 +7°C° 0 mm 1 m/s 553 mmHg 87%
    07:00 +9°C° 0 mm 1 m/s 555 mmHg 78%
    08:00 +12°C° 0 mm 1 m/s 557 mmHg 69%
    09:00 +14°C° 0 mm 0 m/s 558 mmHg 59%
    10:00 +16°C° 0 mm 1 m/s 559 mmHg 55%
    11:00 +18°C° 0 mm 1 m/s 559 mmHg 50%
    12:00 +19°C° 0 mm 2 m/s 559 mmHg 45%
    13:00 +18°C° 0 mm 2 m/s 559 mmHg 48%
    14:00 +18°C° 0 mm 2 m/s 558 mmHg 51%
    15:00 +17°C° 0 mm 2 m/s 557 mmHg 55%
    16:00 +15°C° 0 mm 1 m/s 556 mmHg 65%
    17:00 +13°C° 0 mm 1 m/s 555 mmHg 76%
    18:00 +11°C° 0 mm 1 m/s 554 mmHg 87%
    19:00 +10°C° 0,1 mm 1 m/s 554 mmHg 89%
    20:00 +10°C° 0,1 mm 1 m/s 555 mmHg 90%
    21:00 +9°C° 0,1 mm 1 m/s 555 mmHg 92%
    22:00 +9°C° 0 mm 1 m/s 555 mmHg 91%
    23:00 +9°C° 0 mm 1 m/s 555 mmHg 90%

    Depois de amanhã, 15 Dezembro, Sexta-feira

    Tempo Temperatura Precipitação Vento Pressão Humidade
    00:00 +8°C° 0 mm 1 m/s 554 mmHg 90%
    01:00 +8°C° 0 mm 1 m/s 554 mmHg 89%
    02:00 +8°C° 0 mm 1 m/s 554 mmHg 89%
    03:00 +8°C° 0 mm 1 m/s 553 mmHg 88%
    04:00 +8°C° 0 mm 1 m/s 553 mmHg 88%
    05:00 +8°C° 0 mm 1 m/s 553 mmHg 88%
    06:00 +8°C° 0 mm 1 m/s 553 mmHg 88%
    07:00 +10°C° 0 mm 1 m/s 555 mmHg 79%
    08:00 +12°C° 0 mm 1 m/s 557 mmHg 70%
    09:00 +15°C° 0 mm 1 m/s 558 mmHg 62%
    10:00 +16°C° 0 mm 1 m/s 559 mmHg 58%
    11:00 +17°C° 0 mm 2 m/s 559 mmHg 54%
    12:00 +18°C° 0 mm 2 m/s 559 mmHg 51%
    13:00 +17°C° 0 mm 2 m/s 558 mmHg 53%
    14:00 +17°C° 0 mm 2 m/s 557 mmHg 56%
    15:00 +16°C° 0 mm 2 m/s 556 mmHg 59%
    16:00 +14°C° 0 mm 2 m/s 556 mmHg 66%
    17:00 +12°C° 0 mm 1 m/s 555 mmHg 74%
    18:00 +11°C° 0 mm 1 m/s 554 mmHg 82%
    19:00 +10°C° 0 mm 1 m/s 555 mmHg 83%
    20:00 +10°C° 0 mm 1 m/s 555 mmHg 84%
    21:00 +9°C° 0 mm 1 m/s 555 mmHg 86%
    22:00 +9°C° 0 mm 1 m/s 555 mmHg 86%
    23:00 +9°C° 0 mm 1 m/s 555 mmHg 86%

    16 Dezembro, Sábado

    Tempo Temperatura Precipitação Vento Pressão Humidade
    00:00 +9°C° 0 mm 1 m/s 555 mmHg 86%
    01:00 +9°C° 0 mm 1 m/s 555 mmHg 86%
    02:00 +9°C° 0 mm 1 m/s 554 mmHg 86%
    03:00 +9°C° 0 mm 1 m/s 554 mmHg 85%
    04:00 +9°C° 0 mm 1 m/s 554 mmHg 85%
    05:00 +9°C° 0 mm 1 m/s 554 mmHg 85%
    06:00 +9°C° 0 mm 1 m/s 554 mmHg 85%
    07:00 +10°C° 0 mm 1 m/s 556 mmHg 80%
    08:00 +12°C° 0 mm 1 m/s 557 mmHg 75%
    09:00 +14°C° 0 mm 1 m/s 558 mmHg 70%
    10:00 +14°C° 0,1 mm 2 m/s 558 mmHg 67%
    11:00 +15°C° 0,1 mm 2 m/s 558 mmHg 65%
    12:00 +16°C° 0,1 mm 2 m/s 558 mmHg 62%
    13:00 +15°C° 0 mm 2 m/s 557 mmHg 62%
    14:00 +15°C° 0 mm 2 m/s 557 mmHg 62%
    15:00 +15°C° 0 mm 2 m/s 556 mmHg 62%
    16:00 +13°C° 0 mm 2 m/s 555 mmHg 69%
    17:00 +11°C° 0 mm 1 m/s 555 mmHg 76%
    18:00 +10°C° 0 mm 1 m/s 554 mmHg 83%
    19:00 +9°C° 0 mm 1 m/s 554 mmHg 83%
    20:00 +9°C° 0 mm 1 m/s 555 mmHg 82%
    21:00 +9°C° 0 mm 1 m/s 555 mmHg 82%
    22:00 +8°C° 0,1 mm 1 m/s 555 mmHg 82%
    23:00 +8°C° 0,1 mm 1 m/s 555 mmHg 82%

    17 Dezembro, Domingo

    Tempo Temperatura Precipitação Vento Pressão Humidade
    00:00 +8°C° 0,1 mm 1 m/s 554 mmHg 82%
    01:00 +8°C° 0,1 mm 1 m/s 554 mmHg 82%
    02:00 +8°C° 0,1 mm 1 m/s 554 mmHg 83%
    03:00 +8°C° 0,1 mm 1 m/s 554 mmHg 83%
    04:00 +8°C° 0,1 mm 1 m/s 554 mmHg 83%
    05:00 +8°C° 0,1 mm 1 m/s 554 mmHg 83%
    06:00 +8°C° 0,1 mm 1 m/s 554 mmHg 83%
    07:00 +10°C° 0 mm 1 m/s 555 mmHg 76%
    08:00 +12°C° 0 mm 1 m/s 557 mmHg 68%
    09:00 +15°C° 0 mm 1 m/s 559 mmHg 61%
    10:00 +16°C° 0 mm 1 m/s 559 mmHg 54%
    11:00 +17°C° 0 mm 2 m/s 559 mmHg 48%
    12:00 +18°C° 0 mm 2 m/s 559 mmHg 41%
    13:00 +18°C° 0 mm 2 m/s 558 mmHg 42%
    14:00 +18°C° 0 mm 2 m/s 558 mmHg 43%
    15:00 +18°C° 0 mm 3 m/s 557 mmHg 43%
    16:00 +15°C° 0 mm 2 m/s 556 mmHg 53%
    17:00 +12°C° 0 mm 2 m/s 555 mmHg 63%
    18:00 +10°C° 0 mm 1 m/s 554 mmHg 72%
    19:00 +10°C° 0 mm 1 m/s 554 mmHg 71%
    20:00 +9°C° 0 mm 1 m/s 554 mmHg 69%
    21:00 +9°C° 0 mm 1 m/s 554 mmHg 67%
    22:00 +8°C° 0 mm 1 m/s 554 mmHg 67%
    23:00 +8°C° 0 mm 1 m/s 554 mmHg 67%

    18 Dezembro, Segunda-feira

    Tempo Temperatura Precipitação Vento Pressão Humidade
    00:00 +8°C° 0 mm 1 m/s 554 mmHg 67%
    01:00 +8°C° 0 mm 1 m/s 553 mmHg 69%
    02:00 +8°C° 0 mm 1 m/s 553 mmHg 70%
    03:00 +8°C° 0 mm 1 m/s 553 mmHg 72%
    04:00 +8°C° 0 mm 1 m/s 553 mmHg 73%
    05:00 +8°C° 0 mm 1 m/s 553 mmHg 75%
    06:00 +8°C° 0 mm 1 m/s 553 mmHg 76%
    07:00 +10°C° 0 mm 1 m/s 555 mmHg 70%
    08:00 +13°C° 0 mm 1 m/s 557 mmHg 63%
    09:00 +15°C° 0 mm 1 m/s 558 mmHg 56%
    10:00 +16°C° 0 mm 1 m/s 559 mmHg 54%
    11:00 +17°C° 0 mm 2 m/s 559 mmHg 51%
    12:00 +18°C° 0 mm 2 m/s 559 mmHg 49%
    13:00 +18°C° 0 mm 2 m/s 558 mmHg 51%
    14:00 +17°C° 0 mm 2 m/s 557 mmHg 54%
    15:00 +17°C° 0 mm 2 m/s 557 mmHg 56%
    16:00 +15°C° 0 mm 2 m/s 556 mmHg 65%
    17:00 +13°C° 0 mm 1 m/s 555 mmHg 74%
    18:00 +11°C° 0 mm 1 m/s 554 mmHg 82%
    19:00 +10°C° 0,1 mm 1 m/s 555 mmHg 82%
    20:00 +10°C° 0,1 mm 1 m/s 555 mmHg 83%
    21:00 +9°C° 0,1 mm 1 m/s 555 mmHg 83%
    22:00 +9°C° 0 mm 1 m/s 555 mmHg 82%
    23:00 +9°C° 0 mm 1 m/s 555 mmHg 82%
    Mostrar mais